SL-3 DEB, 14209

Orbit data source: Space-Track

SL-3 DEB, 14209 is space debris in SSO originally from a launch on Sun, 24 Jul 1983 UTC launched from the Tyuratam Missile And Space Complex (TTMTR). Debris objects in space refer to the collection of defunct objects orbiting the Earth. Examples of debris include non-operational satellites, rocket bodies, and fragments generated from explosions, collisions, or faulty payload assembly.

Loading next visibility...
Identifier
14209, 1983-075C
Orbit
SSO
Country
Flag of CISCIS
Related business
Manufacturer
Unknown
Mission
Spacecraft
Bus & Motor
Unknown
Mass
Unknown
Launch date (UTC)
1983-07-24 (42 years ago)
Launch vehicle
Unknown
Launch site
Tyuratam Missile And Space Complex (TTMTR)
Object type
Payload
Rocket body
Debris
Shape & HBR
Unknown shape, 0.1 m
Radar Cross Section
Small (<0.1 m²)

Expand to show TLE details & history
Last TLE update: 14 hours ago

TLE from 14 hours ago
0 SL-3 DEB
1 14209U 83075C   25346.94611197  .00019205  00000-0  39815-3 0  9993
2 14209  97.1957 332.4633 0015496  17.6967 342.4819 15.45642579325426
Epoch: 2025-12-12T22:42Z
TLE epoch observation values (Epoch: 2025-12-12T22:42:24.074Z)
Latitude
-0.00002°
Longitude
-90.01745°
Altitude
422.561 km
Speed
7.663 km/s
True Right ascension
22h 09m 51s
True Declination
0° 00' 00"
Sunlit
Object was in daylight at epoch
Visualization orbit readout
Latitude
Unknown
Longitude
Unknown
Altitude
Unknown
Speed
Unknown
Apparent Right ascension
Unknown
Apparent Declination
Unknown
Sunlit
N/A
Visualization observer readout
Local Sidereal Time
11:17:14
Azimuth
Unknown
Elevation
Unknown
Doppler factor
Unknown
Orbital elements
Apogee altitude
436.958 km
Perigee altitude
415.869 km
Semi-major axis
6,804.55 km
Eccentricity
0.00155
Inclination
97.1957°
RAAN
332.4633°
Arg. of periapsis
17.6967°
True anomaly
342.42835°
Mean anomaly
342.4819°
Eccentric anomaly
342.45514°
Mean motion
3.86673 °/min
Orbital period
93.1 mins
BSTAR
0.00039815
Loading maneuver chart data...
Computing Atmospheric mass density...

Documentation

Showing up to 5 results
|